Time,TemperatureF,DewpointF,PressureIn,WindDirection,WindDirectionDegrees,WindSpeedMPH,WindSpeedGustMPH,Humidity,HourlyPrecipIn,Conditions,Clouds,dailyrainin,SoftwareType,DateUTC
2013-03-30 00:00:00,34.5,30.6,30.17,SW,222,0.0,7.2,86,0.00,,FEW,0.00,VWS V14.00,2013-03-30 04:00:00,
2013-03-30 00:05:00,34.3,30.5,30.17,SSW,195,0.0,7.2,86,0.00,,FEW,0.00,VWS V14.00,2013-03-30 04:05:00,
2013-03-30 00:10:00,34.0,30.2,30.17,SSW,195,0.0,7.2,86,0.00,,FEW,0.00,VWS V14.00,2013-03-30 04:10:00,
2013-03-30 00:15:00,33.8,30.2,30.17,SSW,195,0.0,7.2,86,0.00,,FEW,0.00,VWS V14.00,2013-03-30 04:15:00,
2013-03-30 00:20:00,33.7,30.1,30.17,SSW,195,0.0,7.2,87,0.00,,FEW,0.00,VWS V14.00,2013-03-30 04:20:00,
2013-03-30 00:25:00,33.7,30.2,30.17,SSW,195,0.0,7.2,87,0.00,,FEW,0.00,VWS V14.00,2013-03-30 04:25:00,
2013-03-30 00:30:00,33.6,30.1,30.17,SSW,195,0.0,0.0,87,0.00,,FEW,0.00,VWS V14.00,2013-03-30 04:30:00,
2013-03-30 00:35:00,33.6,30.1,30.17,SSW,195,0.0,0.0,87,0.00,,FEW,0.00,VWS V14.00,2013-03-30 04:35:00,
2013-03-30 00:40:00,33.3,29.8,30.17,SSW,195,0.0,0.0,87,0.00,,FEW,0.00,VWS V14.00,2013-03-30 04:40:00,
2013-03-30 00:45:00,33.0,29.6,30.17,SSW,195,0.0,0.0,87,0.00,,FEW,0.00,VWS V14.00,2013-03-30 04:45:00,
2013-03-30 00:50:00,32.7,29.5,30.18,SSW,195,0.0,0.0,88,0.00,,FEW,0.00,VWS V14.00,2013-03-30 04:50:00,
2013-03-30 00:55:00,32.3,29.1,30.18,SSW,195,0.0,0.0,88,0.00,,FEW,0.00,VWS V14.00,2013-03-30 04:55:00,
2013-03-30 01:00:00,32.1,29.1,30.18,SSW,195,0.0,0.0,88,0.00,,FEW,0.00,VWS V14.00,2013-03-30 05:00:00,
2013-03-30 01:05:00,32.0,29.2,30.18,SSW,195,0.0,0.0,89,0.00,,FEW,0.00,VWS V14.00,2013-03-30 05:05:00,
2013-03-30 01:10:00,32.1,29.2,30.18,SSW,195,0.0,0.0,89,0.00,,FEW,0.00,VWS V14.00,2013-03-30 05:10:00,
2013-03-30 01:15:00,31.8,28.9,30.18,SSW,195,0.0,0.0,89,0.00,,FEW,0.00,VWS V14.00,2013-03-30 05:15:00,
2013-03-30 01:20:00,31.3,28.4,30.18,SSW,195,0.0,0.0,89,0.00,,FEW,0.00,VWS V14.00,2013-03-30 05:20:00,
2013-03-30 01:25:00,31.6,29.3,30.18,SSW,195,0.0,0.0,91,0.00,,FEW,0.00,VWS V14.00,2013-03-30 05:25:00,
2013-03-30 01:30:00,31.7,29.1,30.18,SSW,195,0.0,0.0,90,0.00,,FEW,0.00,VWS V14.00,2013-03-30 05:30:00,
2013-03-30 01:35:00,31.5,28.9,30.18,SSW,195,0.0,0.0,90,0.00,,FEW,0.00,VWS V14.00,2013-03-30 05:35:00,
2013-03-30 01:40:00,31.3,28.8,30.18,SSW,195,0.0,0.0,90,0.00,,FEW,0.00,VWS V14.00,2013-03-30 05:40:00,
2013-03-30 01:45:00,31.2,28.9,30.18,SSW,195,0.0,0.0,91,0.00,,FEW,0.00,VWS V14.00,2013-03-30 05:45:00,
2013-03-30 01:50:00,31.1,28.6,30.18,SSW,195,0.0,0.0,90,0.00,,FEW,0.00,VWS V14.00,2013-03-30 05:50:00,
2013-03-30 01:55:00,30.9,28.4,30.18,SSW,195,0.0,0.0,90,0.00,,FEW,0.00,VWS V14.00,2013-03-30 05:55:00,
2013-03-30 02:00:00,30.8,28.6,30.18,SSW,195,0.0,0.0,91,0.00,,FEW,0.00,VWS V14.00,2013-03-30 06:00:00,
2013-03-30 02:05:00,30.8,28.6,30.19,SSW,195,0.0,0.0,91,0.00,,FEW,0.00,VWS V14.00,2013-03-30 06:05:00,
2013-03-30 02:10:00,30.8,28.5,30.19,SSW,195,0.0,0.0,91,0.00,,FEW,0.00,VWS V14.00,2013-03-30 06:10:00,
2013-03-30 02:15:00,30.7,28.5,30.19,SSW,195,0.0,0.0,91,0.00,,FEW,0.00,VWS V14.00,2013-03-30 06:15:00,
2013-03-30 02:20:00,30.7,28.5,30.19,SSW,195,0.0,0.0,92,0.00,,FEW,0.00,VWS V14.00,2013-03-30 06:20:00,
2013-03-30 02:25:00,30.5,28.4,30.18,SSW,195,0.0,0.0,92,0.00,,FEW,0.00,VWS V14.00,2013-03-30 06:25:00,
2013-03-30 02:30:00,30.3,28.1,30.19,SSW,195,0.0,0.0,91,0.00,,FEW,0.00,VWS V14.00,2013-03-30 06:30:00,
2013-03-30 02:35:00,30.0,27.8,30.19,SSW,195,0.0,0.0,91,0.00,,FEW,0.00,VWS V14.00,2013-03-30 06:35:00,
2013-03-30 02:40:00,29.6,27.5,30.19,SSW,195,0.0,0.0,92,0.00,,FEW,0.00,VWS V14.00,2013-03-30 06:40:00,
2013-03-30 02:45:00,29.4,27.4,30.19,SSW,195,0.0,0.0,92,0.00,,FEW,0.00,VWS V14.00,2013-03-30 06:45:00,
2013-03-30 02:50:00,29.4,27.4,30.19,SSW,195,0.0,0.0,92,0.00,,FEW,0.00,VWS V14.00,2013-03-30 06:50:00,
2013-03-30 02:56:00,29.1,27.1,30.19,SSW,195,0.0,0.0,92,0.00,,FEW,0.00,VWS V14.00,2013-03-30 06:56:00,
2013-03-30 03:00:00,30.8,28.5,30.18,SSW,195,0.0,0.0,91,0.00,,SCT,0.00,VWS V14.00,2013-03-30 07:00:00,
2013-03-30 03:01:00,29.0,27.1,30.19,SSW,195,0.0,0.0,92,0.00,,FEW,0.00,VWS V14.00,2013-03-30 07:01:00,
2013-03-30 03:06:00,29.0,27.1,30.19,SSW,195,0.0,0.0,92,0.00,,FEW,0.00,VWS V14.00,2013-03-30 07:06:00,
2013-03-30 03:11:00,28.9,27.1,30.19,SSW,195,0.0,0.0,93,0.00,,FEW,0.00,VWS V14.00,2013-03-30 07:11:00,
2013-03-30 03:16:00,28.7,26.8,30.19,SSW,195,0.0,0.0,93,0.00,,FEW,0.00,VWS V14.00,2013-03-30 07:16:00,
2013-03-30 03:21:00,28.4,26.5,30.19,SSW,195,0.0,0.0,93,0.00,,FEW,0.00,VWS V14.00,2013-03-30 07:21:00,
2013-03-30 03:26:00,28.1,26.3,30.19,SSW,195,0.0,0.0,93,0.00,,FEW,0.00,VWS V14.00,2013-03-30 07:26:00,
2013-03-30 03:30:00,30.4,28.1,30.19,SSW,195,0.0,0.0,91,0.00,,SCT,0.00,VWS V14.00,2013-03-30 07:30:00,
2013-03-30 03:31:00,27.9,26.1,30.19,SSW,195,0.0,0.0,93,0.00,,FEW,0.00,VWS V14.00,2013-03-30 07:31:00,
2013-03-30 03:36:00,27.8,26.1,30.19,SSW,195,0.0,0.0,93,0.00,,FEW,0.00,VWS V14.00,2013-03-30 07:36:00,
2013-03-30 03:41:00,27.8,26.1,30.19,SSW,195,0.0,0.0,93,0.00,,FEW,0.00,VWS V14.00,2013-03-30 07:41:00,
2013-03-30 03:46:00,27.9,26.2,30.19,SSW,195,0.0,0.0,93,0.00,,FEW,0.00,VWS V14.00,2013-03-30 07:46:00,
2013-03-30 03:51:00,27.9,26.3,30.19,SSW,195,0.0,0.0,94,0.00,,FEW,0.00,VWS V14.00,2013-03-30 07:51:00,
2013-03-30 03:56:00,28.1,26.5,30.19,SSW,195,0.0,0.0,94,0.00,,FEW,0.00,VWS V14.00,2013-03-30 07:56:00,
2013-03-30 04:00:00,29.1,27.2,30.19,SSW,195,0.0,0.0,92,0.00,,SCT,0.00,VWS V14.00,2013-03-30 08:00:00,
2013-03-30 04:01:00,28.1,26.5,30.19,SSW,195,0.0,0.0,94,0.00,,FEW,0.00,VWS V14.00,2013-03-30 08:01:00,
2013-03-30 04:06:00,27.8,26.2,30.19,SSW,195,0.0,0.0,94,0.00,,FEW,0.00,VWS V14.00,2013-03-30 08:06:00,
2013-03-30 04:11:00,27.5,25.9,30.19,SSW,195,0.0,0.0,94,0.00,,FEW,0.00,VWS V14.00,2013-03-30 08:11:00,
2013-03-30 04:16:00,27.0,25.4,30.19,SSW,195,0.0,0.0,94,0.00,,FEW,0.00,VWS V14.00,2013-03-30 08:16:00,
2013-03-30 04:29:00,27.3,26.0,30.20,SSW,195,0.0,0.0,95,0.00,,FEW,0.00,VWS V14.00,2013-03-30 08:29:00,
2013-03-30 04:30:00,28.0,26.2,30.19,SSW,195,0.0,0.0,93,0.00,,SCT,0.00,VWS V14.00,2013-03-30 08:30:00,
2013-03-30 04:36:00,27.6,26.2,30.20,SSW,195,0.0,0.0,94,0.00,,FEW,0.00,VWS V14.00,2013-03-30 08:36:00,
2013-03-30 04:41:00,27.8,26.4,30.20,SSW,195,0.0,0.0,94,0.00,,FEW,0.00,VWS V14.00,2013-03-30 08:41:00,
2013-03-30 04:46:00,27.8,26.3,30.20,SSW,195,0.0,0.0,94,0.00,,FEW,0.00,VWS V14.00,2013-03-30 08:46:00,
2013-03-30 04:51:00,27.5,26.1,30.20,SSW,195,0.0,0.0,94,0.00,,FEW,0.00,VWS V14.00,2013-03-30 08:51:00,
2013-03-30 04:56:00,27.7,26.4,30.20,SSW,195,0.0,0.0,95,0.00,,FEW,0.00,VWS V14.00,2013-03-30 08:56:00,
2013-03-30 05:00:00,28.2,26.6,30.19,SSW,195,0.0,0.0,94,0.00,,SCT,0.00,VWS V14.00,2013-03-30 09:00:00,
2013-03-30 05:01:00,27.9,26.5,30.20,SSW,195,0.0,0.0,95,0.00,,FEW,0.00,VWS V14.00,2013-03-30 09:01:00,
2013-03-30 05:06:00,27.6,26.1,30.20,SSW,195,0.0,0.0,94,0.00,,FEW,0.00,VWS V14.00,2013-03-30 09:06:00,
2013-03-30 05:11:00,27.3,25.9,30.20,SSW,195,0.0,0.0,94,0.00,,FEW,0.00,VWS V14.00,2013-03-30 09:11:00,
2013-03-30 05:16:00,27.4,26.1,30.20,SSW,195,0.0,0.0,95,0.00,,FEW,0.00,VWS V14.00,2013-03-30 09:16:00,
2013-03-30 05:21:00,27.4,26.1,30.20,SSW,195,0.0,0.0,95,0.00,,FEW,0.00,VWS V14.00,2013-03-30 09:21:00,
2013-03-30 05:26:00,27.3,25.9,30.20,SSW,195,0.0,0.0,94,0.00,,FEW,0.00,VWS V14.00,2013-03-30 09:26:00,
2013-03-30 05:30:00,27.3,26.0,30.20,SSW,195,0.0,0.0,95,0.00,,SCT,0.00,VWS V14.00,2013-03-30 09:30:00,
2013-03-30 05:31:00,27.2,25.9,30.20,SSW,195,0.0,0.0,95,0.00,,FEW,0.00,VWS V14.00,2013-03-30 09:31:00,
2013-03-30 05:37:00,27.3,26.0,30.20,SSW,195,0.0,0.0,95,0.00,,FEW,0.00,VWS V14.00,2013-03-30 09:37:00,
2013-03-30 05:42:00,26.8,25.4,30.20,SSW,195,0.0,0.0,94,0.00,,FEW,0.00,VWS V14.00,2013-03-30 09:42:00,
2013-03-30 05:47:00,26.4,25.1,30.20,SSW,195,0.0,0.0,95,0.00,,FEW,0.00,VWS V14.00,2013-03-30 09:47:00,
2013-03-30 05:52:00,26.3,25.0,30.20,SSW,195,0.0,0.0,95,0.00,,FEW,0.00,VWS V14.00,2013-03-30 09:52:00,
2013-03-30 05:57:00,26.2,24.9,30.20,SSW,195,0.0,0.0,95,0.00,,FEW,0.00,VWS V14.00,2013-03-30 09:57:00,
2013-03-30 06:00:00,27.8,26.5,30.20,SSW,195,0.0,0.0,95,0.00,,SCT,0.00,VWS V14.00,2013-03-30 10:00:00,
2013-03-30 06:02:00,25.8,24.5,30.20,SSW,195,0.0,0.0,95,0.00,,FEW,0.00,VWS V14.00,2013-03-30 10:02:00,
2013-03-30 06:07:00,25.6,24.3,30.20,SSW,195,0.0,0.0,95,0.00,,FEW,0.00,VWS V14.00,2013-03-30 10:07:00,
2013-03-30 06:12:00,25.2,23.9,30.20,SSW,195,0.0,0.0,95,0.00,,FEW,0.00,VWS V14.00,2013-03-30 10:12:00,
2013-03-30 06:22:00,25.0,23.8,30.21,SSW,195,0.0,0.0,95,0.00,,FEW,0.00,VWS V14.00,2013-03-30 10:22:00,
2013-03-30 06:27:00,25.1,23.9,30.21,SSW,195,0.0,0.0,95,0.00,,FEW,0.00,VWS V14.00,2013-03-30 10:27:00,
2013-03-30 06:30:00,27.3,26.0,30.20,SSW,195,0.0,0.0,95,0.00,,SCT,0.00,VWS V14.00,2013-03-30 10:30:00,
2013-03-30 06:32:00,25.3,24.1,30.21,SSW,195,0.0,0.0,95,0.00,,FEW,0.00,VWS V14.00,2013-03-30 10:32:00,
2013-03-30 06:37:00,25.6,24.4,30.21,SSW,195,0.0,0.0,95,0.00,,FEW,0.00,VWS V14.00,2013-03-30 10:37:00,
2013-03-30 06:42:00,25.8,24.6,30.21,SSW,195,0.0,0.0,95,0.00,,FEW,0.00,VWS V14.00,2013-03-30 10:42:00,
2013-03-30 06:47:00,25.7,24.5,30.22,SSW,195,0.0,0.0,95,0.00,,FEW,0.00,VWS V14.00,2013-03-30 10:47:00,
2013-03-30 06:52:00,25.7,24.5,30.22,SSW,195,0.0,0.0,95,0.00,,FEW,0.00,VWS V14.00,2013-03-30 10:52:00,
2013-03-30 06:57:00,25.6,24.4,30.22,SSW,195,0.0,0.0,95,0.00,,FEW,0.00,VWS V14.00,2013-03-30 10:57:00,
2013-03-30 07:00:00,26.1,24.8,30.20,SSW,195,0.0,0.0,95,0.00,,SCT,0.00,VWS V14.00,2013-03-30 11:00:00,
2013-03-30 07:07:00,26.4,25.2,30.22,SSW,195,0.0,0.0,95,0.00,,SKC,0.00,VWS V14.00,2013-03-30 11:07:00,
2013-03-30 07:12:00,26.4,25.2,30.22,SSW,195,0.0,0.0,95,0.00,,SKC,0.00,VWS V14.00,2013-03-30 11:12:00,
2013-03-30 07:17:00,26.4,25.2,30.22,SSW,195,0.0,0.0,95,0.00,,SKC,0.00,VWS V14.00,2013-03-30 11:17:00,
2013-03-30 07:22:00,26.6,25.4,30.23,SSW,195,0.0,0.0,95,0.00,,SKC,0.00,VWS V14.00,2013-03-30 11:22:00,
2013-03-30 07:27:00,26.8,25.6,30.23,SSW,195,0.0,0.0,95,0.00,,SKC,0.00,VWS V14.00,2013-03-30 11:27:00,
2013-03-30 07:30:00,25.1,23.9,30.21,SSW,195,0.0,0.0,95,0.00,,SCT,0.00,VWS V14.00,2013-03-30 11:30:00,
2013-03-30 07:32:00,26.8,25.6,30.23,SSW,195,0.0,0.0,95,0.00,,SKC,0.00,VWS V14.00,2013-03-30 11:32:00,
2013-03-30 07:37:00,26.7,25.5,30.23,SSW,195,0.0,0.0,95,0.00,,SKC,0.00,VWS V14.00,2013-03-30 11:37:00,
2013-03-30 07:42:00,27.4,26.3,30.23,SSW,195,0.0,0.0,96,0.00,,SKC,0.00,VWS V14.00,2013-03-30 11:42:00,
2013-03-30 07:48:00,28.0,26.9,30.23,SSW,195,0.0,0.0,96,0.00,,SKC,0.00,VWS V14.00,2013-03-30 11:48:00,
2013-03-30 07:53:00,28.3,27.1,30.23,SSW,195,0.0,0.0,95,0.00,,SKC,0.00,VWS V14.00,2013-03-30 11:53:00,
2013-03-30 07:58:00,28.5,27.3,30.23,SSE,150,0.0,2.5,95,0.00,,SKC,0.00,VWS V14.00,2013-03-30 11:58:00,
2013-03-30 08:00:00,25.7,24.5,30.22,SSW,195,0.0,0.0,95,0.00,,SCT,0.00,VWS V14.00,2013-03-30 12:00:00,
2013-03-30 08:03:00,28.8,27.7,30.23,SSE,150,0.0,0.0,96,0.00,,SKC,0.00,VWS V14.00,2013-03-30 12:03:00,
2013-03-30 08:08:00,29.6,28.5,30.23,SSE,150,0.0,0.0,96,0.00,,SKC,0.00,VWS V14.00,2013-03-30 12:08:00,
2013-03-30 08:13:00,29.9,28.8,30.23,SSE,150,0.0,0.0,95,0.00,,SKC,0.00,VWS V14.00,2013-03-30 12:13:00,
2013-03-30 08:18:00,30.1,29.0,30.23,SSE,150,0.0,0.0,95,0.00,,SKC,0.00,VWS V14.00,2013-03-30 12:18:00,
2013-03-30 08:23:00,30.5,29.3,30.23,SSE,150,0.0,0.0,95,0.00,,SKC,0.00,VWS V14.00,2013-03-30 12:23:00,
2013-03-30 08:28:00,30.8,29.6,30.23,SSE,150,0.0,0.0,95,0.00,,SKC,0.00,VWS V14.00,2013-03-30 12:28:00,
2013-03-30 08:30:00,26.7,25.5,30.23,SSW,195,0.0,0.0,95,0.00,,SCT,0.00,VWS V14.00,2013-03-30 12:30:00,
2013-03-30 08:33:00,31.3,30.1,30.23,SSE,150,0.0,0.0,95,0.00,,SKC,0.00,VWS V14.00,2013-03-30 12:33:00,
2013-03-30 08:38:00,31.6,30.3,30.23,SSE,150,0.0,0.0,95,0.00,,SKC,0.00,VWS V14.00,2013-03-30 12:38:00,
2013-03-30 08:43:00,31.7,29.9,30.23,WSW,240,3.0,4.6,93,0.00,,SKC,0.00,VWS V14.00,2013-03-30 12:43:00,
2013-03-30 08:48:00,32.2,30.0,30.23,WSW,245,2.4,4.7,91,0.00,,SKC,0.00,VWS V14.00,2013-03-30 12:48:00,
2013-03-30 08:53:00,32.5,29.8,30.23,SSW,208,2.0,4.7,90,0.00,,SKC,0.00,VWS V14.00,2013-03-30 12:53:00,
2013-03-30 08:58:00,32.9,29.8,30.23,WSW,255,1.4,4.7,88,0.00,,SKC,0.00,VWS V14.00,2013-03-30 12:58:00,
2013-03-30 09:00:00,28.5,27.3,30.23,SSE,150,0.0,2.5,95,0.00,,SCT,0.00,VWS V14.00,2013-03-30 13:00:00,
2013-03-30 09:03:00,33.3,29.5,30.23,WSW,240,3.2,4.2,86,0.00,,SKC,0.00,VWS V14.00,2013-03-30 13:03:00,
2013-03-30 09:08:00,33.6,29.1,30.23,SW,229,3.3,4.6,83,0.00,,SKC,0.00,VWS V14.00,2013-03-30 13:08:00,
2013-03-30 09:13:00,34.0,28.5,30.23,SW,222,2.2,4.6,80,0.00,,SKC,0.00,VWS V14.00,2013-03-30 13:13:00,
2013-03-30 09:18:00,34.6,28.9,30.23,SSW,202,0.0,4.6,79,0.00,,SKC,0.00,VWS V14.00,2013-03-30 13:18:00,
2013-03-30 09:23:00,34.9,26.1,30.23,WSW,257,2.5,4.7,70,0.00,,SKC,0.00,VWS V14.00,2013-03-30 13:23:00,
2013-03-30 09:28:00,35.2,25.9,30.24,SW,228,2.1,4.7,68,0.00,,SKC,0.00,VWS V14.00,2013-03-30 13:28:00,
2013-03-30 09:30:00,30.9,29.7,30.23,SSE,150,0.0,0.0,95,0.00,,SCT,0.00,VWS V14.00,2013-03-30 13:30:00,
2013-03-30 09:33:00,35.5,25.5,30.24,South,173,1.3,3.7,67,0.00,,SKC,0.00,VWS V14.00,2013-03-30 13:33:00,
2013-03-30 09:38:00,36.1,26.1,30.23,SSW,204,0.0,3.7,67,0.00,,SKC,0.00,VWS V14.00,2013-03-30 13:38:00,
2013-03-30 09:43:00,36.9,26.4,30.24,SSW,204,0.0,3.7,65,0.00,,SKC,0.00,VWS V14.00,2013-03-30 13:43:00,
2013-03-30 09:48:00,37.2,27.1,30.24,SE,135,0.0,3.7,66,0.00,,SKC,0.00,VWS V14.00,2013-03-30 13:48:00,
2013-03-30 09:53:00,37.9,26.9,30.23,South,190,2.7,3.7,64,0.00,,SKC,0.00,VWS V14.00,2013-03-30 13:53:00,
2013-03-30 09:58:00,38.2,26.6,30.23,SE,128,0.7,3.7,63,0.00,,SKC,0.00,VWS V14.00,2013-03-30 13:58:00,
2013-03-30 10:00:00,32.9,29.6,30.23,SW,226,3.4,4.7,88,0.00,,SCT,0.00,VWS V14.00,2013-03-30 14:00:00,
2013-03-30 10:03:00,38.8,27.1,30.23,South,183,0.9,2.0,62,0.00,,SKC,0.00,VWS V14.00,2013-03-30 14:03:00,
2013-03-30 10:08:00,39.2,26.5,30.23,SSE,156,1.7,3.3,60,0.00,,SKC,0.00,VWS V14.00,2013-03-30 14:08:00,
2013-03-30 10:13:00,39.2,25.5,30.23,South,176,1.9,3.6,58,0.00,,SKC,0.00,VWS V14.00,2013-03-30 14:13:00,
2013-03-30 10:18:00,39.4,26.0,30.23,SSE,155,3.0,4.8,58,0.00,,SKC,0.00,VWS V14.00,2013-03-30 14:18:00,
2013-03-30 10:23:00,39.8,26.0,30.23,WNW,300,1.9,5.0,58,0.00,,SKC,0.00,VWS V14.00,2013-03-30 14:23:00,
2013-03-30 10:28:00,39.9,24.6,30.23,SW,224,1.1,6.4,54,0.00,,SKC,0.00,VWS V14.00,2013-03-30 14:28:00,
2013-03-30 10:30:00,35.3,25.9,30.24,South,177,0.5,4.7,68,0.00,,SCT,0.00,VWS V14.00,2013-03-30 14:30:00,
2013-03-30 10:33:00,40.4,26.7,30.23,SSE,156,0.0,2.4,58,0.00,,SKC,0.00,VWS V14.00,2013-03-30 14:33:00,
2013-03-30 10:38:00,40.7,26.8,30.23,SW,228,4.5,5.0,57,0.00,,SKC,0.00,VWS V14.00,2013-03-30 14:38:00,
2013-03-30 10:43:00,40.9,26.3,30.23,SSW,205,0.0,5.0,56,0.00,,SKC,0.00,VWS V14.00,2013-03-30 14:43:00,
2013-03-30 10:48:00,41.2,25.5,30.23,SW,229,0.7,5.5,53,0.00,,SKC,0.00,VWS V14.00,2013-03-30 14:48:00,
2013-03-30 10:53:00,41.5,25.5,30.23,SE,131,0.0,5.5,53,0.00,,SKC,0.00,VWS V14.00,2013-03-30 14:53:00,
2013-03-30 10:58:00,42.0,24.0,30.22,SW,233,1.4,5.5,48,0.00,,SKC,0.00,VWS V14.00,2013-03-30 14:58:00,
2013-03-30 11:00:00,38.3,26.7,30.23,East,93,0.0,3.7,63,0.00,,SCT,0.00,VWS V14.00,2013-03-30 15:00:00,
2013-03-30 11:03:00,42.3,22.9,30.22,NNW,338,1.9,4.3,46,0.00,,SKC,0.00,VWS V14.00,2013-03-30 15:03:00,
2013-03-30 11:08:00,42.3,23.2,30.22,West,278,5.1,7.3,46,0.00,,SKC,0.00,VWS V14.00,2013-03-30 15:08:00,
2013-03-30 11:13:00,42.5,24.3,30.22,West,274,3.7,7.6,48,0.00,,SKC,0.00,VWS V14.00,2013-03-30 15:13:00,
2013-03-30 11:18:00,42.3,24.5,30.22,SW,215,2.1,7.6,49,0.00,,SKC,0.00,VWS V14.00,2013-03-30 15:18:00,
2013-03-30 11:23:00,42.2,23.1,30.22,SW,219,6.8,7.6,46,0.00,,SKC,0.00,VWS V14.00,2013-03-30 15:23:00,
2013-03-30 11:28:00,42.2,23.2,30.22,SW,214,3.9,8.7,47,0.00,,SKC,0.00,VWS V14.00,2013-03-30 15:28:00,
2013-03-30 11:30:00,40.0,25.0,30.23,West,263,0.0,6.4,55,0.00,,SCT,0.00,VWS V14.00,2013-03-30 15:30:00,
2013-03-30 11:33:00,42.3,23.6,30.22,SSW,211,6.1,8.5,47,0.00,,SKC,0.00,VWS V14.00,2013-03-30 15:33:00,
2013-03-30 11:38:00,42.5,23.5,30.22,SW,235,7.5,8.6,47,0.00,,SKC,0.00,VWS V14.00,2013-03-30 15:38:00,
2013-03-30 11:43:00,42.4,22.0,30.22,SSW,207,4.3,9.4,44,0.00,,SKC,0.00,VWS V14.00,2013-03-30 15:43:00,
2013-03-30 11:48:00,42.6,23.2,30.22,SSW,195,3.8,9.4,46,0.00,,SKC,0.00,VWS V14.00,2013-03-30 15:48:00,
2013-03-30 11:53:00,43.1,20.9,30.22,West,270,2.5,9.4,41,0.00,,SKC,0.00,VWS V14.00,2013-03-30 15:53:00,
2013-03-30 11:58:00,44.1,22.8,30.21,SW,221,4.3,9.4,42,0.00,,SKC,0.00,VWS V14.00,2013-03-30 15:58:00,
2013-03-30 12:00:00,41.9,23.9,30.23,WSW,240,3.4,5.5,48,0.00,,SCT,0.00,VWS V14.00,2013-03-30 16:00:00,
2013-03-30 12:03:00,44.3,24.2,30.21,NW,309,9.4,9.4,45,0.00,,SKC,0.00,VWS V14.00,2013-03-30 16:03:00,
2013-03-30 12:08:00,44.3,22.2,30.21,SW,236,4.7,10.2,41,0.00,,SKC,0.00,VWS V14.00,2013-03-30 16:08:00,
2013-03-30 12:13:00,44.7,22.5,30.21,WNW,301,0.7,10.2,41,0.00,,SKC,0.00,VWS V14.00,2013-03-30 16:13:00,
2013-03-30 12:18:00,44.8,21.9,30.21,NW,308,2.2,10.2,40,0.00,,SKC,0.00,VWS V14.00,2013-03-30 16:18:00,
2013-03-30 12:23:00,44.7,21.9,30.21,WNW,291,8.3,10.2,40,0.00,,SKC,0.00,VWS V14.00,2013-03-30 16:23:00,
2013-03-30 12:28:00,44.8,20.8,30.21,SE,141,3.6,10.2,38,0.00,,SKC,0.00,VWS V14.00,2013-03-30 16:28:00,
2013-03-30 12:30:00,42.4,23.5,30.22,SW,218,3.5,8.7,47,0.00,,SCT,0.00,VWS V14.00,2013-03-30 16:30:00,
2013-03-30 12:33:00,45.3,21.5,30.20,SW,226,4.8,7.8,38,0.00,,SKC,0.00,VWS V14.00,2013-03-30 16:33:00,
2013-03-30 12:38:00,45.8,22.7,30.20,WNW,297,10.9,10.9,40,0.00,,SKC,0.00,VWS V14.00,2013-03-30 16:38:00,
2013-03-30 12:43:00,45.3,18.0,30.20,WNW,288,4.0,10.9,33,0.00,,SKC,0.00,VWS V14.00,2013-03-30 16:43:00,
2013-03-30 12:48:00,45.6,21.5,30.20,WSW,255,5.3,15.5,38,0.00,,SKC,0.00,VWS V14.00,2013-03-30 16:48:00,
2013-03-30 12:53:00,46.0,22.1,30.20,West,269,6.3,15.5,38,0.00,,SKC,0.00,VWS V14.00,2013-03-30 16:53:00,
2013-03-30 12:58:00,45.8,19.6,30.20,West,277,4.9,15.5,35,0.00,,SKC,0.00,VWS V14.00,2013-03-30 16:58:00,
2013-03-30 13:00:00,44.1,23.1,30.21,SW,219,2.6,9.4,43,0.00,,SCT,0.00,VWS V14.00,2013-03-30 17:00:00,
2013-03-30 13:03:00,45.9,18.4,30.20,NNW,345,3.5,12.9,33,0.00,,SKC,0.00,VWS V14.00,2013-03-30 17:03:00,
2013-03-30 13:08:00,46.4,21.0,30.19,NW,311,4.5,12.9,36,0.00,,SKC,0.00,VWS V14.00,2013-03-30 17:08:00,
2013-03-30 13:13:00,45.9,19.2,30.19,West,273,5.2,12.9,34,0.00,,SKC,0.00,VWS V14.00,2013-03-30 17:13:00,
2013-03-30 13:18:00,46.3,20.9,30.19,WNW,285,4.8,12.9,36,0.00,,SKC,0.00,VWS V14.00,2013-03-30 17:18:00,
2013-03-30 13:23:00,46.8,20.9,30.19,SSE,167,1.5,12.9,36,0.00,,SKC,0.00,VWS V14.00,2013-03-30 17:23:00,
2013-03-30 13:28:00,47.3,20.6,30.19,SSE,153,7.8,12.9,34,0.00,,SKC,0.00,VWS V14.00,2013-03-30 17:28:00,
2013-03-30 13:30:00,44.8,21.2,30.20,South,181,2.6,10.2,39,0.00,,SCT,0.00,VWS V14.00,2013-03-30 17:30:00,
2013-03-30 13:33:00,47.0,19.3,30.19,SSW,207,4.3,9.5,33,0.00,,SKC,0.00,VWS V14.00,2013-03-30 17:33:00,
2013-03-30 13:39:00,46.8,20.5,30.18,South,180,0.7,9.8,35,0.00,,SKC,0.00,VWS V14.00,2013-03-30 17:39:00,
2013-03-30 13:44:00,47.0,19.9,30.18,WNW,290,6.3,9.8,34,0.00,,SKC,0.00,VWS V14.00,2013-03-30 17:44:00,
2013-03-30 13:49:00,47.0,21.6,30.18,WSW,240,6.6,9.8,36,0.00,,SKC,0.00,VWS V14.00,2013-03-30 17:49:00,
2013-03-30 13:54:00,47.2,21.1,30.18,WSW,240,4.6,10.3,35,0.00,,SKC,0.00,VWS V14.00,2013-03-30 17:54:00,
2013-03-30 13:59:00,47.5,24.3,30.18,WSW,248,4.4,10.3,40,0.00,,SKC,0.00,VWS V14.00,2013-03-30 17:59:00,
2013-03-30 14:00:00,45.8,19.5,30.19,NW,304,6.9,15.5,35,0.00,,SCT,0.00,VWS V14.00,2013-03-30 18:00:00,
2013-03-30 14:04:00,47.6,22.0,30.18,SSW,208,3.3,7.6,36,0.00,,SKC,0.00,VWS V14.00,2013-03-30 18:04:00,
2013-03-30 14:09:00,47.8,22.0,30.18,WSW,248,2.5,10.0,36,0.00,,SKC,0.00,VWS V14.00,2013-03-30 18:09:00,
2013-03-30 14:14:00,48.4,23.0,30.17,SSE,153,5.7,10.0,36,0.00,,SKC,0.00,VWS V14.00,2013-03-30 18:14:00,
2013-03-30 14:19:00,48.2,23.3,30.17,SW,228,2.0,10.0,37,0.00,,SKC,0.00,VWS V14.00,2013-03-30 18:19:00,
2013-03-30 14:24:00,48.5,22.3,30.17,SW,226,7.8,10.0,35,0.00,,SKC,0.00,VWS V14.00,2013-03-30 18:24:00,
2013-03-30 14:29:00,48.0,22.2,30.17,SSW,197,4.5,10.0,36,0.00,,SKC,0.00,VWS V14.00,2013-03-30 18:29:00,
2013-03-30 14:30:00,47.4,20.7,30.19,NNW,330,7.4,12.9,34,0.00,,SCT,0.00,VWS V14.00,2013-03-30 18:30:00,
2013-03-30 14:34:00,47.8,24.2,30.17,WSW,242,4.5,9.6,39,0.00,,SKC,0.00,VWS V14.00,2013-03-30 18:34:00,
2013-03-30 14:39:00,48.2,20.7,30.17,SW,235,3.5,9.9,33,0.00,,SKC,0.00,VWS V14.00,2013-03-30 18:39:00,
2013-03-30 14:44:00,48.2,21.8,30.17,West,263,8.0,12.3,35,0.00,,SKC,0.00,VWS V14.00,2013-03-30 18:44:00,
2013-03-30 14:49:00,48.3,22.5,30.17,WSW,245,5.1,12.3,36,0.00,,SKC,0.00,VWS V14.00,2013-03-30 18:49:00,
2013-03-30 14:54:00,48.1,20.7,30.17,SW,219,4.6,12.3,33,0.00,,SKC,0.00,VWS V14.00,2013-03-30 18:54:00,
2013-03-30 14:59:00,48.2,21.2,30.17,WNW,297,7.1,12.3,34,0.00,,SKC,0.00,VWS V14.00,2013-03-30 18:59:00,
2013-03-30 15:00:00,47.6,24.4,30.18,SSW,211,3.2,10.3,40,0.00,,SCT,0.00,VWS V14.00,2013-03-30 19:00:00,
2013-03-30 15:04:00,48.5,22.0,30.16,WNW,287,11.1,12.1,35,0.00,,SKC,0.00,VWS V14.00,2013-03-30 19:04:00,
2013-03-30 15:09:00,48.5,21.1,30.16,SSW,211,5.3,12.1,34,0.00,,SKC,0.00,VWS V14.00,2013-03-30 19:09:00,
2013-03-30 15:14:00,48.9,20.9,30.16,South,188,4.1,12.1,33,0.00,,SKC,0.00,VWS V14.00,2013-03-30 19:14:00,
2013-03-30 15:19:00,49.2,21.6,30.16,WSW,245,3.5,12.1,33,0.00,,SKC,0.00,VWS V14.00,2013-03-30 19:19:00,
2013-03-30 15:24:00,49.5,20.8,30.16,WSW,240,6.8,12.7,32,0.00,,SKC,0.00,VWS V14.00,2013-03-30 19:24:00,
2013-03-30 15:29:00,49.3,20.8,30.16,West,267,7.1,12.7,32,0.00,,SKC,0.00,VWS V14.00,2013-03-30 19:29:00,
2013-03-30 15:30:00,48.0,23.7,30.17,SW,235,4.2,10.0,38,0.00,,SCT,0.00,VWS V14.00,2013-03-30 19:30:00,
2013-03-30 15:34:00,49.4,20.9,30.16,NW,325,7.3,9.3,32,0.00,,SKC,0.00,VWS V14.00,2013-03-30 19:34:00,
2013-03-30 15:39:00,49.4,19.7,30.15,SSW,193,4.6,9.3,30,0.00,,SKC,0.00,VWS V14.00,2013-03-30 19:39:00,
2013-03-30 15:44:00,49.4,20.4,30.15,SW,224,5.5,9.6,32,0.00,,SKC,0.00,VWS V14.00,2013-03-30 19:44:00,
2013-03-30 15:49:00,49.8,22.9,30.15,South,184,3.2,9.6,34,0.00,,SKC,0.00,VWS V14.00,2013-03-30 19:49:00,
2013-03-30 15:54:00,49.7,21.0,30.15,WSW,242,5.3,9.6,32,0.00,,SKC,0.00,VWS V14.00,2013-03-30 19:54:00,
2013-03-30 15:59:00,49.8,22.0,30.15,WSW,238,7.6,11.0,33,0.00,,SKC,0.00,VWS V14.00,2013-03-30 19:59:00,
2013-03-30 16:00:00,48.1,21.1,30.17,NW,304,7.4,12.3,34,0.00,,SCT,0.00,VWS V14.00,2013-03-30 20:00:00,
2013-03-30 16:04:00,49.9,22.6,30.14,West,267,4.7,10.1,34,0.00,,SKC,0.00,VWS V14.00,2013-03-30 20:04:00,
2013-03-30 16:09:00,49.5,18.7,30.14,WSW,256,5.3,10.4,29,0.00,,SKC,0.00,VWS V14.00,2013-03-30 20:09:00,
2013-03-30 16:14:00,49.5,19.1,30.14,SW,235,5.0,12.1,30,0.00,,SKC,0.00,VWS V14.00,2013-03-30 20:14:00,
2013-03-30 16:19:00,49.8,18.5,30.14,WNW,283,4.5,12.1,29,0.00,,SKC,0.00,VWS V14.00,2013-03-30 20:19:00,
2013-03-30 16:24:00,49.5,20.1,30.14,NNW,338,3.1,12.1,31,0.00,,SKC,0.00,VWS V14.00,2013-03-30 20:24:00,
2013-03-30 16:29:00,49.9,19.6,30.14,WSW,238,3.2,12.1,30,0.00,,SKC,0.00,VWS V14.00,2013-03-30 20:29:00,
2013-03-30 16:30:00,49.3,20.3,30.16,SW,228,4.6,12.7,31,0.00,,SCT,0.00,VWS V14.00,2013-03-30 20:30:00,
2013-03-30 16:34:00,50.0,20.6,30.14,WSW,238,1.2,6.8,31,0.00,,SKC,0.00,VWS V14.00,2013-03-30 20:34:00,
2013-03-30 16:39:00,50.1,21.1,30.14,WNW,298,0.0,6.8,32,0.00,,SKC,0.00,VWS V14.00,2013-03-30 20:39:00,
2013-03-30 16:44:00,50.5,24.0,30.14,SW,233,2.2,7.0,35,0.00,,SKC,0.00,VWS V14.00,2013-03-30 20:44:00,
2013-03-30 16:49:00,50.3,18.7,30.13,WNW,288,8.7,16.9,28,0.00,,SKC,0.00,VWS V14.00,2013-03-30 20:49:00,
2013-03-30 16:54:00,50.0,20.9,30.13,WNW,301,4.9,16.9,31,0.00,,SKC,0.00,VWS V14.00,2013-03-30 20:54:00,
2013-03-30 16:59:00,50.0,20.4,30.14,WSW,257,4.4,4.9,31,0.00,,SKC,0.00,VWS V14.00,2013-03-30 20:59:00,
2013-03-30 17:00:00,49.6,21.8,30.15,West,270,7.9,11.0,33,0.00,,SCT,0.00,VWS V14.00,2013-03-30 21:00:00,
2013-03-30 17:04:00,50.2,19.4,30.13,WSW,250,6.0,8.1,29,0.00,,SKC,0.00,VWS V14.00,2013-03-30 21:04:00,
2013-03-30 17:09:00,49.9,18.7,30.13,West,259,11.4,11.4,29,0.00,,SKC,0.00,VWS V14.00,2013-03-30 21:09:00,
2013-03-30 17:14:00,49.9,19.6,30.13,WSW,257,6.6,14.4,30,0.00,,SKC,0.00,VWS V14.00,2013-03-30 21:14:00,
2013-03-30 17:19:00,49.6,18.3,30.13,WSW,245,3.1,14.4,29,0.00,,SKC,0.00,VWS V14.00,2013-03-30 21:19:00,
2013-03-30 17:24:00,49.9,19.3,30.13,SW,232,1.9,14.4,30,0.00,,SKC,0.00,VWS V14.00,2013-03-30 21:24:00,
2013-03-30 17:29:00,49.7,20.4,30.13,WSW,242,5.3,6.2,31,0.00,,SKC,0.00,VWS V14.00,2013-03-30 21:29:00,
2013-03-30 17:30:00,49.9,19.6,30.14,SW,236,3.5,12.1,30,0.00,,SCT,0.00,VWS V14.00,2013-03-30 21:30:00,
2013-03-30 17:34:00,49.7,21.1,30.13,SW,222,7.6,10.6,32,0.00,,SKC,0.00,VWS V14.00,2013-03-30 21:34:00,
2013-03-30 17:39:00,49.6,20.5,30.13,West,281,5.3,10.6,31,0.00,,SKC,0.00,VWS V14.00,2013-03-30 21:39:00,
2013-03-30 17:44:00,49.4,22.2,30.13,WSW,255,7.4,12.1,34,0.00,,SKC,0.00,VWS V14.00,2013-03-30 21:44:00,
2013-03-30 17:49:00,49.4,22.5,30.13,WSW,245,7.4,12.1,34,0.00,,SKC,0.00,VWS V14.00,2013-03-30 21:49:00,
2013-03-30 17:54:00,49.3,24.1,30.13,SSW,205,5.0,12.1,37,0.00,,SKC,0.00,VWS V14.00,2013-03-30 21:54:00,
2013-03-30 17:59:00,48.9,23.0,30.13,SW,214,8.0,8.0,36,0.00,,SKC,0.00,VWS V14.00,2013-03-30 21:59:00,
2013-03-30 18:00:00,50.1,20.5,30.14,WNW,288,4.5,16.9,31,0.00,,SCT,0.00,VWS V14.00,2013-03-30 22:00:00,
2013-03-30 18:04:00,49.0,21.5,30.13,WSW,239,4.3,11.3,33,0.00,,SKC,0.00,VWS V14.00,2013-03-30 22:04:00,
2013-03-30 18:09:00,48.7,22.0,30.13,SW,219,4.8,11.3,35,0.00,,SKC,0.00,VWS V14.00,2013-03-30 22:09:00,
2013-03-30 18:14:00,48.9,21.9,30.14,West,259,8.0,11.3,34,0.00,,SKC,0.00,VWS V14.00,2013-03-30 22:14:00,
2013-03-30 18:19:00,48.9,22.0,30.13,WSW,257,5.3,11.3,34,0.00,,SKC,0.00,VWS V14.00,2013-03-30 22:19:00,
2013-03-30 18:24:00,48.4,22.1,30.14,SW,228,4.8,11.3,35,0.00,,SKC,0.00,VWS V14.00,2013-03-30 22:24:00,
2013-03-30 18:29:00,48.5,23.6,30.13,SW,235,4.2,4.7,37,0.00,,SKC,0.00,VWS V14.00,2013-03-30 22:29:00,
2013-03-30 18:30:00,49.8,20.5,30.13,WSW,255,4.3,14.4,31,0.00,,SCT,0.00,VWS V14.00,2013-03-30 22:30:00,
2013-03-30 18:34:00,48.4,24.0,30.14,NW,304,1.5,6.6,38,0.00,,SKC,0.00,VWS V14.00,2013-03-30 22:34:00,
2013-03-30 18:39:00,48.1,22.9,30.13,WNW,295,7.5,8.0,37,0.00,,SKC,0.00,VWS V14.00,2013-03-30 22:39:00,
2013-03-30 18:44:00,48.0,23.1,30.14,WSW,253,4.0,8.0,37,0.00,,SKC,0.00,VWS V14.00,2013-03-30 22:44:00,
2013-03-30 18:49:00,47.5,23.4,30.13,WSW,239,4.8,8.3,38,0.00,,SKC,0.00,VWS V14.00,2013-03-30 22:49:00,
2013-03-30 18:54:00,47.5,23.9,30.13,SW,231,1.9,8.3,39,0.00,,SKC,0.00,VWS V14.00,2013-03-30 22:54:00,
2013-03-30 18:59:00,47.3,23.4,30.13,West,264,5.0,5.1,39,0.00,,SKC,0.00,VWS V14.00,2013-03-30 22:59:00,
2013-03-30 19:00:00,49.0,22.3,30.13,SW,217,7.4,12.1,35,0.00,,SCT,0.00,VWS V14.00,2013-03-30 23:00:00,
2013-03-30 19:04:00,46.8,24.4,30.13,WSW,243,4.6,7.7,41,0.00,,SKC,0.00,VWS V14.00,2013-03-30 23:04:00,
2013-03-30 19:09:00,46.3,25.1,30.13,West,263,6.3,10.7,43,0.00,,SKC,0.00,VWS V14.00,2013-03-30 23:09:00,
2013-03-30 19:14:00,45.8,25.4,30.14,SW,225,6.3,10.7,44,0.00,,SKC,0.00,VWS V14.00,2013-03-30 23:14:00,
2013-03-30 19:19:00,45.6,25.9,30.14,WSW,252,3.9,10.7,46,0.00,,SKC,0.00,VWS V14.00,2013-03-30 23:19:00,
2013-03-30 19:24:00,45.1,25.9,30.14,SW,219,3.4,10.7,47,0.00,,SKC,0.00,VWS V14.00,2013-03-30 23:24:00,
2013-03-30 19:29:00,44.7,25.8,30.14,SW,218,4.5,5.2,47,0.00,,SKC,0.00,VWS V14.00,2013-03-30 23:29:00,
2013-03-30 19:30:00,48.4,23.2,30.13,WSW,249,2.5,11.3,37,0.00,,SCT,0.00,VWS V14.00,2013-03-30 23:30:00,
2013-03-30 19:35:00,44.6,25.8,30.14,West,280,5.6,7.5,47,0.00,,SKC,0.00,VWS V14.00,2013-03-30 23:35:00,
2013-03-30 19:40:00,44.2,25.5,30.14,WSW,246,2.9,8.5,47,0.00,,SKC,0.00,VWS V14.00,2013-03-30 23:40:00,
2013-03-30 19:45:00,44.0,25.3,30.14,SW,221,5.0,8.5,48,0.00,,SKC,0.00,VWS V14.00,2013-03-30 23:45:00,
2013-03-30 19:50:00,43.6,25.7,30.14,SW,229,1.1,8.5,49,0.00,,SKC,0.00,VWS V14.00,2013-03-30 23:50:00,
2013-03-30 19:55:00,43.5,25.9,30.15,WSW,248,0.0,8.5,50,0.00,,SKC,0.00,VWS V14.00,2013-03-30 23:55:00,
2013-03-30 20:00:00,42.9,25.5,30.15,SSW,202,0.0,0.7,50,0.00,,SKC,0.00,VWS V14.00,2013-03-31 00:00:00,
2013-03-30 20:05:00,42.7,25.4,30.15,SW,229,4.5,6.5,50,0.00,,SKC,0.00,VWS V14.00,2013-03-31 00:05:00,
2013-03-30 20:10:00,42.8,25.7,30.15,SSW,212,3.0,6.8,50,0.00,,SKC,0.00,VWS V14.00,2013-03-31 00:10:00,
2013-03-30 20:15:00,42.6,25.5,30.15,SW,233,3.1,6.8,50,0.00,,SKC,0.00,VWS V14.00,2013-03-31 00:15:00,
2013-03-30 20:20:00,42.5,24.9,30.15,WSW,246,2.8,7.1,49,0.00,,SKC,0.00,VWS V14.00,2013-03-31 00:20:00,
2013-03-30 20:25:00,42.3,25.2,30.15,SW,229,2.9,7.1,50,0.00,,SKC,0.00,VWS V14.00,2013-03-31 00:25:00,
2013-03-30 20:30:00,42.2,24.5,30.15,SSW,210,5.2,6.9,49,0.00,,SKC,0.00,VWS V14.00,2013-03-31 00:30:00,
2013-03-30 20:35:00,42.1,24.6,30.15,SSW,208,2.9,7.4,50,0.00,,SKC,0.00,VWS V14.00,2013-03-31 00:35:00,
2013-03-30 20:40:00,42.0,24.2,30.15,SSW,201,4.1,7.4,49,0.00,,SKC,0.00,VWS V14.00,2013-03-31 00:40:00,
2013-03-30 20:45:00,41.8,24.1,30.15,SW,214,3.7,7.4,49,0.00,,SKC,0.00,VWS V14.00,2013-03-31 00:45:00,
2013-03-30 20:50:00,41.6,24.1,30.15,South,183,0.0,7.4,50,0.00,,SKC,0.00,VWS V14.00,2013-03-31 00:50:00,
2013-03-30 20:55:00,41.4,24.2,30.15,South,183,0.0,7.4,50,0.00,,SKC,0.00,VWS V14.00,2013-03-31 00:55:00,
2013-03-30 21:00:00,41.1,24.1,30.15,South,183,0.0,0.0,50,0.00,,SKC,0.00,VWS V14.00,2013-03-31 01:00:00,
2013-03-30 21:05:00,41.0,24.3,30.15,SSE,155,0.0,3.3,51,0.00,,SKC,0.00,VWS V14.00,2013-03-31 01:05:00,
2013-03-30 21:10:00,40.9,24.7,30.15,SSE,156,0.0,5.2,52,0.00,,SKC,0.00,VWS V14.00,2013-03-31 01:10:00,
2013-03-30 21:15:00,40.6,24.5,30.15,SSW,208,0.0,5.5,52,0.00,,SKC,0.00,VWS V14.00,2013-03-31 01:15:00,
2013-03-30 21:20:00,40.2,24.4,30.15,SW,225,0.0,5.5,53,0.00,,SKC,0.00,VWS V14.00,2013-03-31 01:20:00,
2013-03-30 21:25:00,40.1,24.4,30.15,SSW,193,2.7,5.5,53,0.00,,SKC,0.00,VWS V14.00,2013-03-31 01:25:00,
2013-03-30 21:30:00,40.0,24.4,30.15,SSW,207,1.8,3.3,53,0.00,,SKC,0.00,VWS V14.00,2013-03-31 01:30:00,
2013-03-30 21:35:00,39.8,24.3,30.15,SW,215,0.0,3.3,53,0.00,,SKC,0.00,VWS V14.00,2013-03-31 01:35:00,
2013-03-30 21:40:00,39.8,24.4,30.15,SW,215,0.0,3.3,54,0.00,,SKC,0.00,VWS V14.00,2013-03-31 01:40:00,
2013-03-30 21:45:00,39.6,24.3,30.15,South,173,0.0,3.3,54,0.00,,SKC,0.00,VWS V14.00,2013-03-31 01:45:00,
2013-03-30 21:50:00,39.4,24.2,30.15,South,186,1.2,3.7,54,0.00,,SKC,0.00,VWS V14.00,2013-03-31 01:50:00,
2013-03-30 21:55:00,39.4,24.2,30.14,SE,145,0.0,5.3,54,0.00,,SKC,0.00,VWS V14.00,2013-03-31 01:55:00,
2013-03-30 22:00:00,39.3,24.1,30.14,ESE,122,0.0,0.0,54,0.00,,SKC,0.00,VWS V14.00,2013-03-31 02:00:00,
2013-03-30 22:05:00,39.1,23.6,30.14,ESE,122,0.0,0.0,53,0.00,,SKC,0.00,VWS V14.00,2013-03-31 02:05:00,
2013-03-30 22:10:00,39.0,23.5,30.14,South,173,0.0,4.0,53,0.00,,SKC,0.00,VWS V14.00,2013-03-31 02:10:00,
2013-03-30 22:15:00,38.7,23.2,30.14,SSE,149,2.3,4.0,53,0.00,,SKC,0.00,VWS V14.00,2013-03-31 02:15:00,
2013-03-30 22:20:00,38.7,23.3,30.14,SE,138,0.0,4.2,54,0.00,,SKC,0.00,VWS V14.00,2013-03-31 02:20:00,
2013-03-30 22:25:00,38.6,23.1,30.13,SE,134,1.4,4.2,53,0.00,,SKC,0.00,VWS V14.00,2013-03-31 02:25:00,
2013-03-30 22:30:00,38.7,22.9,30.13,ESE,122,0.0,1.3,53,0.00,,SKC,0.00,VWS V14.00,2013-03-31 02:30:00,
2013-03-30 22:35:00,38.7,22.7,30.13,SE,141,1.9,5.9,52,0.00,,SKC,0.00,VWS V14.00,2013-03-31 02:35:00,
2013-03-30 22:40:00,38.5,22.7,30.13,SSE,166,3.4,5.9,53,0.00,,SKC,0.00,VWS V14.00,2013-03-31 02:40:00,
2013-03-30 22:45:00,38.5,22.8,30.13,South,190,1.7,5.9,53,0.00,,SKC,0.00,VWS V14.00,2013-03-31 02:45:00,
2013-03-30 22:50:00,38.5,22.9,30.13,SSE,165,2.3,5.9,53,0.00,,SKC,0.00,VWS V14.00,2013-03-31 02:50:00,
2013-03-30 22:55:00,38.5,22.9,30.13,SSE,162,0.0,5.9,53,0.00,,SKC,0.00,VWS V14.00,2013-03-31 02:55:00,
2013-03-30 23:00:00,38.4,22.8,30.13,SSE,162,0.0,0.0,53,0.00,,SKC,0.00,VWS V14.00,2013-03-31 03:00:00,
2013-03-30 23:05:00,38.3,22.6,30.13,South,174,1.1,2.5,53,0.00,,SKC,0.00,VWS V14.00,2013-03-31 03:05:00,
2013-03-30 23:10:00,38.2,22.5,30.13,SE,143,1.1,5.3,53,0.00,,SKC,0.00,VWS V14.00,2013-03-31 03:10:00,
2013-03-30 23:15:00,38.2,22.5,30.12,South,170,4.2,5.3,53,0.00,,SKC,0.00,VWS V14.00,2013-03-31 03:15:00,
2013-03-30 23:20:00,38.2,22.6,30.12,ESE,104,0.0,5.3,53,0.00,,SKC,0.00,VWS V14.00,2013-03-31 03:20:00,
2013-03-30 23:25:00,38.2,22.5,30.12,SE,129,1.7,6.1,53,0.00,,SKC,0.00,VWS V14.00,2013-03-31 03:25:00,
2013-03-30 23:30:00,38.4,22.7,30.12,SE,142,2.1,3.0,53,0.00,,SKC,0.00,VWS V14.00,2013-03-31 03:30:00,
2013-03-30 23:35:00,38.2,22.6,30.12,ESE,111,0.0,3.8,53,0.00,,SKC,0.00,VWS V14.00,2013-03-31 03:35:00,
2013-03-30 23:40:00,38.1,22.5,30.12,SE,138,4.6,5.0,53,0.00,,SKC,0.00,VWS V14.00,2013-03-31 03:40:00,
2013-03-30 23:45:00,38.3,22.6,30.12,SSE,158,3.3,6.5,53,0.00,,SKC,0.00,VWS V14.00,2013-03-31 03:45:00,
2013-03-30 23:50:00,38.2,22.6,30.12,SSE,153,0.0,6.5,53,0.00,,SKC,0.00,VWS V14.00,2013-03-31 03:50:00,
2013-03-30 23:55:00,37.8,22.8,30.13,SSE,153,0.0,6.5,54,0.00,,SKC,0.00,VWS V14.00,2013-03-31 03:55:00,